Torna al catalogo

STARLINK-5261

AttivoComunicazioniVLEO
NORAD 55276·PAYLOAD·🇺🇸 United States

Lanciato Jan 19, 2023 da Vandenberg Space Force Base

Loading…

Prossimi Passaggi (prossime 24 ore)

TLE

AggiornatoSource: CelesTrak SupGP

Epoca: Sep 15, 2026, 03:11 UTC

1 55276C 23010H   26258.13312500 -.00039406  00000+0 -33020-2 0  2580
2 55276  70.0000 266.9114 0003737 267.6787  76.9282 14.98353527    18

Traccia STARLINK-5261 in tempo reale con AllMySat

Download on the App Store